Theta_e
309 309 309 309 309 309 310 310 309 309 308 308 307 307 307 307 307 307 308 309 310 311 311 311 310 309 308 308 309 310 310 310 310 310 311 313 313 314 318 319 321 320 320 319 316 326 333 337 344 349 350 348 348 349 351 354 352 356 363 363 362 365 364 361 361 363 363 359 359 359 357 359 359 359 357 357 357 355 355 352 348 349 350 351 351 350 351 350
310 310 310 310 310 309 309 309 309 310 309 309 309 308 308 308 308 308 308 309 310 311 312 311 311 310 308 308 309 309 310 310 310 311 312 313 313 313 314 316 320 320 320 319 316 327 337 337 341 347 349 347 349 350 352 353 354 359 364 363 362 364 361 358 359 360 361 359 360 358 357 359 359 358 358 360 360 355 356 353 348 350 350 350 350 350 351 350
312 312 312 312 311 311 310 310 309 310 310 310 310 310 310 310 309 309 310 310 310 311 312 311 311 310 309 308 309 310 310 310 312 316 317 314 314 314 314 313 316 319 321 319 316 330 340 340 341 346 346 346 348 351 353 354 356 359 361 365 362 357 356 357 358 359 359 359 360 359 359 359 358 357 359 361 361 358 357 354 349 350 350 349 350 350 350 350
313 313 313 313 313 313 312 311 311 310 310 310 310 311 310 311 311 311 311 311 311 312 312 312 311 310 309 308 309 309 308 314 322 326 324 318 316 315 313 313 313 316 321 318 319 333 341 341 343 343 342 344 346 351 354 354 358 359 359 367 362 353 357 358 357 359 359 359 360 359 360 360 358 357 359 359 361 362 358 353 350 350 350 349 350 350 350 349
313 313 313 313 313 313 313 313 312 311 311 310 310 310 311 311 311 311 312 312 312 312 312 312 311 310 309 308 310 309 312 325 332 331 330 324 321 318 313 313 312 315 320 318 323 333 336 339 343 339 338 339 344 356 357 352 354 356 357 360 356 354 357 358 357 360 360 359 359 360 361 360 358 358 358 357 361 361 356 353 350 349 350 349 349 349 349 350
313 313 313 313 313 313 313 313 313 313 312 311 310 310 311 311 311 312 312 313 314 313 312 312 311 310 308 309 309 308 314 326 328 329 332 326 324 322 316 313 311 316 319 318 327 333 332 337 341 337 337 334 341 359 358 351 352 359 362 354 352 354 355 358 359 359 360 359 359 361 360 359 359 360 358 356 359 357 354 354 350 349 350 348 349 349 350 350
313 313 313 313 313 313 313 313 313 313 313 312 312 310 311 311 312 312 313 314 314 313 312 311 311 310 309 309 308 310 316 321 320 324 329 326 323 320 318 313 311 317 317 321 330 332 331 336 338 334 335 334 336 352 355 352 352 361 364 354 351 353 353 358 359 359 361 360 360 360 360 360 361 361 359 357 357 354 353 353 350 350 349 349 349 349 349 350
312 312 312 312 312 312 313 313 313 313 313 313 313 312 311 311 312 312 313 314 314 314 312 311 310 309 309 308 309 317 321 323 323 325 327 328 325 320 319 313 313 318 317 325 334 331 332 336 336 333 332 334 335 344 352 352 351 356 357 353 351 350 351 358 359 359 361 360 359 359 359 360 361 359 359 358 355 354 353 351 351 350 349 349 348 348 349 349
311 311 311 311 311 311 312 312 312 313 313 313 313 312 311 311 312 312 313 314 313 313 312 311 310 309 309 308 313 321 325 328 330 330 328 329 327 322 319 313 315 319 317 328 334 331 334 335 333 333 331 333 333 338 349 352 352 355 354 352 351 349 352 358 359 360 360 359 358 357 358 360 358 358 361 358 356 355 353 351 351 350 349 349 349 349 348 348
310 310 311 311 311 311 311 311 312 312 313 313 313 313 312 311 312 313 313 314 313 313 313 311 309 309 309 310 318 324 327 330 330 329 328 327 326 322 318 313 317 319 319 328 331 330 334 334 331 331 330 332 331 334 344 350 352 353 351 350 350 350 353 357 359 360 359 359 358 358 359 359 357 359 362 358 355 356 353 352 351 350 350 349 349 349 348 348
311 311 311 311 311 310 310 310 311 311 312 312 313 313 312 312 312 313 314 313 313 313 313 311 309 309 309 312 320 325 327 328 327 326 326 324 321 319 316 313 318 319 320 326 329 330 334 334 332 329 328 329 330 330 336 341 346 350 348 348 349 351 354 357 359 359 358 359 359 360 361 360 358 360 362 357 355 355 352 352 351 350 349 348 349 348 348 348
312 312 312 311 310 310 310 310 310 311 311 312 313 313 313 312 312 313 314 313 314 313 312 310 309 309 310 314 319 323 327 329 327 327 325 320 317 315 313 314 319 320 321 326 329 331 333 333 331 329 328 328 328 329 330 332 339 348 348 349 351 354 355 356 358 358 358 360 358 357 360 361 361 360 358 354 353 353 352 351 351 350 349 349 349 348 349 347
312 312 312 311 311 311 311 311 311 310 311 312 312 313 313 312 312 314 313 313 314 313 310 309 309 309 313 317 320 322 327 328 326 326 323 319 316 313 314 319 320 320 323 329 330 330 331 331 330 328 328 327 326 328 329 328 333 342 346 349 352 356 358 356 357 359 359 359 356 356 359 360 363 359 355 354 353 353 352 351 350 350 348 349 348 348 348 346
313 313 313 313 313 312 313 312 312 311 310 312 312 313 313 312 313 313 314 314 314 313 310 309 309 311 315 319 322 325 326 328 326 325 323 319 317 317 320 324 322 322 326 329 330 328 327 327 327 327 327 326 327 327 328 329 331 337 343 344 349 355 358 355 355 358 360 358 355 358 360 361 363 358 355 355 354 353 352 351 349 349 348 348 348 347 347 346
314 314 314 314 314 314 314 313 313 311 310 311 312 313 313 313 313 313 314 313 313 313 310 311 312 313 319 322 323 326 325 326 326 325 324 319 318 319 323 326 325 324 327 329 329 327 325 325 326 326 326 326 326 327 327 330 332 336 340 339 347 355 355 355 354 356 363 359 356 360 361 362 363 357 355 355 353 353 352 351 349 348 348 347 347 347 346 345
314 314 314 315 315 314 314 314 313 312 311 311 312 313 313 313 313 313 313 313 314 314 311 318 320 317 321 324 324 327 325 324 324 324 326 321 319 320 323 327 327 327 328 329 327 325 325 324 325 325 325 326 325 327 327 327 331 335 339 336 345 353 352 355 355 354 358 358 357 359 361 363 362 358 356 354 353 353 352 352 350 348 348 346 346 346 346 345
314 315 315 316 316 315 315 314 314 313 311 311 312 313 313 313 314 314 313 312 313 313 312 319 324 322 322 323 324 326 325 323 322 325 327 324 321 321 324 327 328 328 328 328 326 325 325 324 325 325 325 325 324 327 325 324 326 332 339 335 342 355 353 353 355 354 354 356 358 358 360 361 359 357 356 353 354 353 351 352 352 350 348 346 346 346 345 345
314 315 316 316 316 316 315 314 314 313 312 312 312 313 313 313 313 314 314 314 313 313 315 316 322 326 326 322 323 326 326 323 323 326 327 326 325 324 324 325 327 328 327 328 326 324 325 324 324 324 324 324 324 325 323 324 327 329 334 331 336 349 352 351 354 356 354 354 357 357 359 360 357 357 358 355 355 354 353 353 353 352 348 346 346 345 345 344
315 316 317 317 316 315 315 314 314 314 312 312 312 312 313 315 318 318 315 316 318 319 322 320 321 327 326 321 323 325 326 324 324 327 326 326 326 325 326 325 326 327 326 326 325 323 324 324 324 323 322 323 324 325 324 327 330 330 333 332 333 338 345 352 355 355 355 355 356 356 357 359 357 357 358 356 356 356 354 352 352 351 348 347 347 345 345 345
316 317 317 316 316 315 315 315 314 314 313 312 313 312 316 322 325 324 319 318 321 322 324 322 320 322 321 322 323 324 325 324 325 326 325 326 326 325 326 325 325 326 325 325 323 323 324 324 323 322 322 322 323 324 326 327 329 330 329 331 329 331 342 352 354 354 353 352 353 356 358 359 357 357 358 356 355 356 354 352 352 351 348 347 348 347 345 346
316 317 316 316 315 315 316 316 313 313 313 313 312 312 320 326 322 323 321 320 321 321 322 322 322 322 321 322 323 324 325 324 325 325 324 326 326 325 325 325 325 325 324 324 324 324 324 323 323 322 321 322 323 324 326 326 328 329 328 328 326 331 343 351 353 353 349 350 351 356 358 357 356 356 359 357 355 356 355 353 352 352 350 348 350 349 346 346
317 317 316 315 315 316 318 317 314 313 312 312 313 312 319 323 319 319 319 319 320 321 323 324 323 323 322 322 324 326 326 325 325 324 324 326 326 325 324 323 325 325 324 323 324 325 323 323 322 322 322 321 322 323 324 326 326 327 329 327 326 336 347 348 350 351 346 350 352 356 357 356 355 354 356 357 355 355 356 354 353 352 352 351 351 351 347 346
317 317 316 316 315 316 319 319 317 315 313 312 315 317 320 321 319 319 318 319 319 319 321 323 323 321 320 322 324 325 326 326 325 324 325 325 326 326 323 323 324 325 324 323 324 324 322 323 323 323 323 322 322 322 323 325 325 327 328 325 326 338 345 341 346 349 346 349 353 354 355 355 354 353 355 357 356 355 355 356 354 353 353 352 351 351 348 346
317 317 317 316 316 316 318 320 320 318 316 315 317 320 321 320 319 319 318 318 319 318 318 321 322 320 319 321 323 324 324 324 324 325 326 324 325 326 323 323 324 325 325 323 324 324 323 324 324 323 323 323 322 322 323 323 323 325 327 326 327 334 342 343 346 346 345 349 352 352 351 353 355 355 356 357 357 356 355 355 355 354 354 352 352 351 350 348
317 317 316 315 316 316 317 319 320 319 320 320 319 320 319 319 320 319 319 319 319 319 318 319 321 320 319 320 322 323 322 322 322 323 326 325 324 325 325 324 324 325 325 324 324 323 324 326 325 324 324 324 323 323 324 322 321 322 326 329 329 333 341 347 347 343 342 344 349 349 346 349 355 356 357 356 355 356 355 355 356 356 356 354 353 352 350 349
316 317 317 315 315 317 318 319 319 319 321 322 321 320 318 320 320 318 320 320 317 318 318 319 319 318 318 318 321 322 321 321 321 322 325 325 324 325 325 325 325 325 325 325 325 324 324 326 326 325 324 324 324 323 323 324 322 321 326 331 332 334 339 343 343 339 337 340 347 346 345 346 352 353 356 355 354 356 355 355 356 357 357 355 354 353 350 350
316 317 317 315 315 318 320 319 318 320 321 321 320 320 318 319 319 318 322 321 318 318 318 316 316 317 317 317 319 320 320 320 320 322 326 325 324 325 325 326 326 325 326 325 324 324 325 325 326 326 325 324 323 322 324 326 324 323 328 332 334 335 335 338 337 334 335 340 344 343 344 346 347 350 354 354 355 357 356 356 357 357 356 355 354 355 352 350
316 316 317 316 315 319 322 321 319 319 320 319 319 319 318 319 319 319 323 323 320 318 317 315 316 317 316 318 320 319 319 319 319 323 327 325 323 325 325 325 326 325 326 325 322 325 325 325 326 327 325 324 323 323 324 325 326 327 330 333 334 334 336 336 334 330 331 334 336 339 339 343 344 348 352 354 355 358 357 356 357 356 355 354 354 354 353 352
317 316 316 316 316 318 320 321 321 320 320 320 319 318 318 319 319 320 323 323 319 316 317 316 316 317 317 319 319 319 319 319 320 323 325 324 323 324 324 325 325 324 324 324 324 326 326 326 326 326 326 324 324 325 325 326 330 331 331 333 331 331 334 336 335 332 329 329 331 335 334 339 342 345 349 353 353 357 358 356 356 356 354 353 353 353 353 353
316 316 316 317 316 317 318 320 321 321 322 321 319 319 320 320 321 322 322 321 317 316 317 315 315 316 317 318 319 320 319 319 322 324 325 324 323 323 324 324 323 322 322 323 324 326 326 326 326 327 326 326 326 327 326 328 333 332 332 331 329 330 330 332 336 333 328 328 331 332 330 337 341 343 347 351 351 354 356 355 357 357 355 354 353 352 351 352
316 316 316 317 317 317 317 320 321 320 321 321 320 322 322 322 323 322 320 317 315 316 316 316 316 316 317 318 318 318 318 319 321 323 323 322 322 323 324 324 322 321 322 322 323 325 326 326 327 327 327 328 330 330 329 330 331 330 331 328 324 330 332 327 329 330 327 329 332 328 328 335 338 342 347 350 351 352 352 354 355 355 355 355 354 353 351 351
316 317 317 317 318 318 318 318 318 318 319 320 322 323 323 324 323 320 319 316 314 315 316 317 317 317 317 318 317 318 318 318 320 321 321 320 322 324 324 323 322 321 320 321 322 324 326 326 328 328 329 329 329 330 330 330 331 330 329 326 322 327 332 326 324 327 326 329 331 326 330 339 340 343 347 349 350 350 351 352 354 354 353 353 353 353 353 354
316 317 318 318 319 319 317 317 317 318 320 321 322 322 323 325 324 319 319 316 315 316 317 317 317 317 318 317 317 318 318 318 319 320 320 320 321 322 322 322 322 321 320 321 321 320 323 326 327 328 329 329 329 328 326 326 329 330 326 325 324 325 329 326 325 326 326 328 329 324 330 338 341 344 346 349 348 349 351 351 352 353 352 351 351 353 355 356
316 318 320 321 321 320 318 318 318 319 321 322 323 323 323 324 323 319 318 318 317 317 317 317 317 317 318 316 317 318 317 317 319 320 319 319 318 319 320 320 321 321 321 321 320 319 320 323 326 327 327 329 329 328 327 326 329 331 329 328 326 324 327 326 325 325 325 326 326 325 333 339 342 347 347 347 348 350 350 350 352 353 352 352 352 354 356 357
317 317 320 322 321 319 318 318 318 320 322 322 323 323 321 320 320 317 317 317 316 317 318 317 317 316 316 317 317 318 317 317 318 319 319 318 318 319 319 319 319 321 321 320 321 320 319 321 326 327 327 328 328 328 329 328 327 330 330 328 325 327 329 327 325 323 323 324 323 330 340 345 347 350 350 346 347 348 348 349 350 351 352 353 353 354 356 357
317 317 319 322 321 320 318 319 319 321 322 323 323 323 320 318 318 317 317 317 316 317 316 316 316 315 315 316 317 318 317 316 318 318 318 318 319 319 319 320 320 320 322 321 322 321 319 320 324 326 327 327 328 328 327 328 328 329 328 325 328 331 330 325 323 322 322 323 326 336 343 343 344 348 351 349 349 350 348 348 348 349 351 352 354 355 356 358
317 317 319 321 322 322 320 319 321 322 322 323 323 323 320 318 318 317 317 317 316 317 316 315 315 314 314 314 316 318 317 316 318 318 316 317 320 320 320 321 321 321 322 321 322 323 320 320 323 324 326 326 327 329 328 328 330 328 324 325 330 330 328 328 324 323 322 321 327 339 340 339 343 348 351 351 352 353 353 352 351 350 351 352 353 354 356 357
316 317 320 321 321 320 319 319 320 321 322 323 324 323 319 318 318 317 317 317 316 317 317 316 316 316 315 314 315 318 316 316 317 317 317 319 319 319 320 320 321 321 321 321 322 323 322 320 322 324 326 325 325 327 327 328 329 328 325 326 329 325 325 328 324 323 322 321 330 340 339 339 343 344 348 352 352 351 352 353 353 351 352 353 353 353 354 355
317 319 321 322 320 318 319 320 320 321 322 323 324 322 319 319 318 317 318 317 317 318 318 318 318 317 316 315 316 318 317 317 317 318 323 325 320 319 319 318 319 320 320 321 322 322 322 321 321 325 325 324 325 325 324 326 329 329 327 325 327 325 324 327 324 323 323 323 333 342 342 345 348 347 348 350 349 349 349 351 352 352 353 354 354 355 354 353
320 323 323 322 319 318 318 319 320 322 324 324 323 321 319 319 318 318 317 317 318 318 318 319 318 317 317 317 317 318 317 318 317 318 323 323 319 318 319 318 318 319 319 320 321 321 323 322 320 324 324 322 322 324 324 325 326 326 325 322 323 324 325 326 324 323 322 324 334 344 346 347 350 350 349 349 348 348 348 350 350 350 351 353 353 354 353 352
319 323 323 321 319 318 318 319 320 321 323 323 321 320 319 318 317 318 318 318 318 318 319 319 319 318 318 318 317 317 318 318 318 318 319 319 318 318 318 318 318 319 319 321 322 321 322 323 320 320 320 319 320 324 324 324 325 325 324 323 322 323 323 322 324 325 321 322 330 342 345 343 345 348 348 347 348 348 347 348 348 349 350 351 352 352 352 352
318 322 322 319 319 318 317 320 322 322 322 321 320 319 319 318 318 317 317 318 319 318 319 319 319 319 319 318 318 317 318 319 319 319 318 318 318 318 317 318 319 318 319 321 322 322 323 324 322 320 321 320 321 324 323 323 325 324 324 325 324 325 323 320 322 326 323 326 331 337 341 342 343 346 347 346 346 346 346 347 348 349 350 350 351 351 350 350
320 323 321 317 317 318 318 322 324 323 321 321 319 318 318 318 318 318 318 318 319 319 319 319 319 322 322 319 317 318 318 318 319 319 319 319 318 317 318 318 318 319 320 321 322 323 323 324 323 325 329 327 324 324 323 323 323 323 324 325 323 324 324 322 325 328 328 331 337 340 343 346 345 343 343 344 345 346 346 347 348 348 348 349 349 349 349 348
321 322 322 318 318 319 320 321 323 322 321 319 318 318 318 318 318 318 318 318 318 319 319 318 319 322 323 320 318 319 319 320 320 319 319 320 318 317 318 317 317 318 318 319 323 324 323 325 326 326 326 325 324 325 325 324 324 322 323 324 323 323 325 327 328 331 333 334 336 340 342 345 347 345 341 342 344 345 345 346 346 346 347 347 347 346 346 346
322 324 324 319 317 319 319 319 319 320 320 318 318 318 317 317 318 317 318 318 318 318 320 319 319 320 321 319 318 318 320 321 321 319 319 318 317 317 317 317 317 318 318 320 323 324 324 327 331 329 324 323 326 328 326 324 324 322 321 323 323 322 324 328 328 331 336 338 337 338 338 340 345 345 341 342 343 344 344 344 344 344 344 345 345 344 343 344
326 327 325 321 319 318 317 316 316 318 319 321 321 318 316 317 317 317 317 318 318 318 319 319 319 320 320 319 320 319 319 320 321 321 321 318 317 318 317 317 317 317 319 320 320 322 328 331 333 333 327 325 329 332 329 325 322 320 320 321 322 323 324 329 330 331 337 342 339 337 338 339 340 341 341 341 342 342 343 342 342 343 342 342 343 342 342 342
328 326 321 321 322 321 319 317 317 318 318 320 322 318 316 317 318 318 317 318 318 317 318 319 319 320 321 321 322 322 321 321 320 321 321 319 318 317 316 317 317 316 319 319 318 324 332 330 328 328 326 325 326 326 324 322 320 319 320 319 321 324 323 326 327 328 335 340 339 340 340 338 338 339 340 340 341 341 340 339 340 340 340 340 340 340 340 339
325 322 316 319 321 321 319 316 317 318 316 318 319 316 316 318 317 317 317 318 319 317 320 322 320 320 321 321 325 326 325 325 325 324 323 321 320 318 317 317 317 316 318 319 319 322 326 325 322 321 322 322 323 322 321 321 320 320 320 320 321 322 323 323 323 325 333 338 339 343 343 340 339 339 338 338 340 339 337 338 338 338 338 339 338 338 338 338
323 322 319 320 321 318 317 316 317 317 316 320 322 318 316 318 317 316 317 318 319 317 320 322 321 319 320 321 326 328 327 329 331 329 326 322 321 322 321 319 318 318 318 319 320 320 322 324 323 320 319 320 321 322 321 320 320 319 320 320 321 321 321 321 322 324 333 338 339 343 344 342 342 342 340 337 337 337 336 336 337 337 337 337 336 337 337 337
323 324 323 325 323 317 315 318 320 321 320 322 324 320 317 317 316 315 316 317 319 319 319 320 320 319 320 321 325 325 325 328 332 331 328 323 322 325 325 322 320 321 320 319 319 319 321 324 323 321 321 320 319 320 320 320 319 318 318 320 321 320 320 321 322 325 333 339 340 341 342 342 341 340 339 336 334 335 335 334 335 336 335 335 335 335 335 335
321 324 326 329 327 319 316 319 321 324 323 321 322 320 317 317 316 316 317 316 317 319 319 318 320 320 320 321 321 321 323 326 327 326 324 321 320 323 324 322 321 323 324 322 320 320 322 323 323 324 323 320 318 319 319 318 319 317 317 319 320 320 320 320 322 325 331 336 339 340 342 343 340 337 337 336 334 334 333 332 334 334 334 334 333 333 333 333
317 321 326 330 330 324 319 320 321 322 321 319 318 318 317 317 318 319 319 317 315 317 318 318 319 321 322 321 319 317 318 319 320 319 317 317 318 318 319 319 318 321 324 323 322 322 322 323 325 324 321 320 318 317 317 317 317 317 318 319 319 320 321 320 320 326 331 336 339 340 340 341 338 336 337 337 334 333 333 332 331 332 332 332 332 332 331 330
Wind_Speed
13 14 14 14 14 14 14 13 12 12 11 10 9 8 8 7 7 8 9 10 10 10 11 12 12 11 10 9 9 8 9 10 10 13 14 8 7 11 10 10 10 12 11 7 9 12 10 10 8 7 9 12 11 9 6 5 7 7 2 1 2 2 1 2 4 3 5 6 5 9 9 7 5 5 7 6 6 9 12 16 21 24 26 28 33 37 35 35
14 14 14 14 14 14 14 14 13 13 12 11 10 9 9 8 8 8 8 9 10 10 10 11 11 11 10 9 9 9 10 10 12 14 9 4 8 11 11 11 10 12 13 10 11 14 12 12 11 10 10 12 10 6 4 7 6 4 2 1 2 3 1 3 6 6 6 8 9 9 9 8 8 8 8 4 6 10 8 13 22 27 30 33 35 36 34 35
14 14 14 14 14 14 14 14 14 13 13 12 11 11 10 9 8 8 8 8 9 10 10 10 11 11 9 9 9 10 11 11 13 10 3 6 8 8 11 11 11 11 12 11 11 13 12 13 10 9 11 12 10 7 3 6 5 4 4 1 3 5 1 5 10 11 11 14 12 8 8 9 10 10 8 5 6 7 5 11 21 29 34 35 34 35 35 34
16 15 15 14 14 14 14 14 14 14 14 13 12 11 11 10 9 9 8 8 9 10 10 10 10 10 9 8 9 10 12 10 7 2 2 3 3 5 8 10 11 12 11 10 11 12 11 11 10 10 11 11 10 9 4 6 6 5 5 2 3 6 3 8 13 13 15 19 15 10 9 9 10 9 8 9 7 2 4 12 24 33 36 35 35 35 33 33
17 17 16 16 15 14 14 14 13 13 13 13 13 12 11 11 10 9 8 7 8 9 10 10 9 9 8 8 8 9 9 5 2 2 1 2 2 2 6 9 11 11 11 11 13 13 12 13 12 12 11 9 5 8 4 10 10 3 5 8 8 7 4 9 15 15 16 18 16 12 10 9 10 8 9 10 4 4 7 13 27 35 36 37 35 34 33 33
18 18 17 17 16 15 15 14 14 13 13 13 13 13 12 11 10 10 9 8 8 9 10 9 9 8 7 6 8 8 5 1 2 0 2 3 5 3 4 8 11 12 12 14 16 12 12 13 12 13 10 7 5 6 8 15 13 3 3 7 13 15 7 9 18 18 17 17 15 11 11 12 9 7 10 8 3 8 11 15 28 34 35 36 34 33 33 31
19 19 18 18 17 17 16 15 15 14 13 13 13 12 12 11 10 10 9 8 8 9 9 9 9 8 6 6 7 7 8 7 3 2 3 3 6 6 2 9 12 14 16 17 18 12 11 13 13 14 8 6 8 8 14 19 15 6 2 6 9 15 13 12 19 20 18 16 15 14 14 12 8 7 9 6 6 10 13 17 28 33 32 33 31 31 32 30
19 19 19 19 18 17 17 16 16 15 14 14 13 12 11 11 10 9 9 9 9 9 9 8 8 7 6 5 5 6 9 8 1 1 4 6 8 8 4 11 15 17 19 20 19 12 11 13 13 13 7 6 10 7 17 16 9 6 5 7 6 8 15 18 20 20 19 16 17 18 13 9 8 10 8 5 8 11 14 22 29 32 31 30 29 29 30 29
20 20 20 19 19 18 17 17 16 15 14 14 14 13 11 10 10 9 9 10 10 9 7 7 7 6 5 3 3 4 6 4 0 3 7 9 10 9 6 11 18 20 21 21 18 11 12 12 13 13 8 8 12 7 17 11 3 8 7 8 8 3 14 19 21 20 18 16 18 17 9 8 10 10 6 4 8 11 16 25 29 31 30 28 28 28 28 28
21 21 20 20 19 19 18 17 16 16 14 14 14 13 11 9 9 9 9 10 9 8 7 7 7 5 5 2 0 2 3 2 3 6 9 10 11 10 8 13 19 21 23 21 17 12 13 13 12 13 11 10 13 9 14 10 8 14 9 12 11 12 17 16 19 20 18 15 16 16 7 9 11 6 3 5 10 12 17 25 28 30 29 28 28 28 27 27
22 22 22 21 20 20 18 17 16 16 14 13 13 13 10 8 8 8 9 9 7 7 7 7 6 5 4 3 4 3 2 3 5 8 9 7 9 8 8 14 19 21 23 18 14 12 13 13 11 12 9 5 9 9 8 5 10 21 16 14 10 15 17 15 18 20 16 11 15 19 10 7 7 1 2 5 11 12 17 24 27 29 27 27 28 28 27 26
21 22 22 21 20 19 18 17 16 15 15 13 12 12 10 8 7 8 8 7 6 6 6 6 6 5 4 6 10 7 3 1 5 9 10 5 4 5 8 15 18 20 20 15 12 10 11 12 12 13 9 7 7 6 7 12 4 19 18 8 2 10 11 11 16 19 12 9 19 22 10 3 2 4 5 5 9 12 17 21 25 26 26 27 28 28 27 25
19 20 21 21 20 19 17 16 15 14 14 13 11 11 9 7 6 7 6 5 5 6 6 5 6 4 4 7 9 5 3 2 3 6 7 4 1 6 11 12 13 18 17 13 12 8 10 12 12 13 13 11 8 7 10 18 13 12 13 5 5 7 4 2 7 16 11 9 19 13 4 3 1 4 5 8 10 11 12 17 24 25 24 27 27 27 26 24
17 18 19 19 19 18 17 16 15 14 13 12 11 10 8 6 5 5 4 4 5 5 5 4 5 4 5 7 3 2 2 2 3 5 5 2 4 7 12 9 10 14 14 12 12 9 9 9 11 12 12 10 9 12 11 11 11 4 7 5 5 5 1 7 3 11 9 5 11 4 1 5 2 3 4 5 9 8 6 14 23 25 24 27 27 26 24 25
15 15 16 17 18 17 17 16 15 13 12 12 10 9 7 5 5 4 3 3 4 5 4 3 4 4 7 10 4 4 8 7 5 6 7 6 8 9 11 12 11 11 11 11 11 10 9 10 12 10 7 9 8 8 6 4 5 3 3 4 4 5 4 3 4 5 5 5 6 1 2 2 2 5 4 6 11 7 6 15 24 25 23 27 28 25 24 25
14 14 14 16 17 18 17 16 15 12 11 11 10 8 6 6 5 4 2 3 4 5 3 2 5 5 6 7 6 7 9 9 8 8 8 8 11 10 10 12 13 11 11 11 10 9 8 10 9 5 4 7 5 4 4 4 4 4 3 3 6 6 3 4 4 6 9 9 3 1 2 2 2 6 6 9 14 10 8 13 21 24 24 27 28 25 25 25
13 14 15 17 18 18 18 17 15 12 9 10 9 8 7 6 6 5 3 4 4 5 5 2 4 8 8 4 5 9 10 8 8 10 10 10 11 10 10 12 13 13 13 11 10 8 7 8 5 1 4 5 3 3 4 4 5 4 4 4 9 10 6 5 3 6 11 10 5 2 2 4 5 7 9 11 14 13 11 11 11 18 22 26 27 24 25 25
11 13 16 18 19 19 18 17 15 12 9 9 8 8 8 7 7 6 5 6 6 5 7 5 3 5 7 9 9 11 13 10 9 11 10 10 12 11 11 12 12 13 12 9 10 9 5 6 7 2 4 3 3 4 3 6 7 6 7 5 7 12 10 10 8 11 14 10 8 7 3 7 8 8 11 12 12 10 10 11 6 11 17 22 25 25 25 25
11 14 16 18 19 18 17 17 15 11 9 7 7 8 9 9 9 7 6 6 6 4 4 6 11 4 5 9 11 11 12 11 10 11 10 10 11 11 11 10 11 13 10 5 8 11 6 4 6 3 3 5 6 7 6 9 11 8 5 4 6 9 10 12 11 13 16 9 8 9 7 9 11 9 9 12 13 9 9 12 6 10 16 18 19 23 27 25
13 15 17 18 18 17 16 16 14 10 8 6 6 7 7 8 5 2 5 10 11 10 8 8 15 15 14 13 7 9 10 11 11 11 11 10 10 12 13 11 11 11 7 4 6 12 10 4 4 5 5 7 9 10 11 13 12 12 8 6 7 5 8 13 13 14 15 9 5 9 10 10 10 9 8 13 14 10 12 12 7 12 20 19 14 17 27 26
14 16 17 18 18 16 14 14 12 9 7 6 6 6 6 8 6 4 3 10 16 17 16 12 15 20 22 17 6 12 12 10 10 11 11 11 11 10 12 12 8 5 6 7 7 10 10 4 4 8 9 10 11 11 12 13 12 11 8 7 9 2 10 16 17 18 16 8 6 10 11 10 9 9 10 14 13 10 13 15 12 14 19 22 16 14 26 27
14 16 17 19 18 15 12 12 11 9 7 5 5 5 6 10 10 11 10 10 15 19 18 16 16 18 20 15 5 12 12 9 10 11 11 13 11 9 12 11 5 4 6 9 6 5 7 4 7 10 10 11 11 10 11 13 11 8 6 6 6 3 12 13 16 19 13 6 8 12 10 8 8 8 10 14 13 12 15 17 17 18 19 23 20 14 22 26
13 16 17 19 18 15 11 11 10 9 6 3 3 5 7 11 11 13 12 10 14 18 18 19 19 17 16 9 4 8 9 9 9 12 13 13 13 11 12 9 6 6 7 7 6 4 4 5 9 11 10 10 11 11 9 9 7 6 6 5 3 7 12 8 11 17 14 9 12 14 8 5 6 7 9 13 14 13 16 16 15 17 20 24 22 17 21 25
13 15 17 18 17 15 12 10 9 9 8 5 4 7 10 10 11 12 11 9 9 13 16 18 18 16 15 8 6 9 11 8 9 13 15 13 14 12 10 9 7 6 6 8 9 7 5 8 13 13 10 9 10 10 8 6 5 6 7 6 5 6 10 10 10 13 11 11 15 15 7 3 6 8 8 10 12 12 16 16 13 15 18 22 22 19 21 23
12 14 17 17 16 14 12 10 9 10 11 8 4 8 11 8 9 11 10 6 5 8 11 12 15 13 12 9 8 9 11 9 12 14 18 16 15 10 8 10 7 5 7 10 10 8 7 10 14 12 10 10 8 7 9 8 5 5 7 9 10 5 6 12 13 11 7 6 14 14 6 2 6 9 9 9 9 9 13 15 15 16 16 17 20 21 23 23
12 14 16 17 15 14 12 9 7 9 11 8 5 8 8 7 10 11 6 3 3 4 5 8 10 8 9 10 11 9 7 8 13 15 20 18 17 12 6 7 7 5 9 9 7 5 6 10 11 10 10 10 8 6 9 9 4 3 5 9 11 6 5 13 15 12 5 5 13 12 5 4 6 7 9 11 11 10 12 13 15 18 18 17 20 21 25 24
11 13 15 16 15 13 12 10 8 10 10 7 7 7 6 9 11 10 3 3 2 3 4 5 6 5 6 9 12 7 2 6 14 17 21 17 16 14 7 4 5 5 7 6 4 3 7 11 10 9 10 8 7 6 6 6 3 3 7 7 8 8 4 8 8 7 5 6 12 11 6 6 5 8 11 13 13 12 12 12 13 19 23 22 21 22 26 26
11 13 14 14 13 11 11 10 9 11 11 10 10 7 6 10 10 6 3 2 1 3 3 3 4 3 4 8 12 10 6 8 10 13 21 15 13 12 7 6 5 6 7 5 3 5 9 10 9 9 9 5 5 6 6 7 5 5 8 5 6 7 5 7 6 2 1 5 6 9 6 7 3 7 11 12 12 13 14 13 12 19 24 25 24 23 27 25
11 13 13 12 10 9 8 8 8 8 9 12 12 6 5 9 7 3 2 1 1 1 2 4 4 3 5 8 11 15 13 8 5 12 20 13 11 11 7 8 10 8 7 7 7 6 7 11 11 7 5 5 7 9 10 9 4 4 9 8 6 6 6 8 5 2 1 1 5 12 9 6 3 6 10 11 11 12 13 12 13 21 26 27 27 26 28 26
11 12 12 10 8 9 8 7 9 10 10 12 10 4 6 9 5 3 2 0 1 3 4 4 4 6 8 6 7 12 12 5 7 13 16 11 12 13 9 11 10 6 6 9 10 8 6 13 14 8 5 5 4 5 6 7 5 4 7 7 6 6 4 5 3 4 1 3 4 12 12 8 5 6 8 9 11 14 13 10 12 19 24 26 29 29 30 29
10 10 10 9 8 7 8 7 8 9 8 7 6 6 7 6 2 2 1 1 1 2 3 3 6 7 9 6 5 8 9 5 10 12 8 5 9 10 6 7 6 2 5 7 7 10 9 10 8 4 4 1 3 2 3 8 5 4 3 4 4 5 4 2 1 4 1 4 4 6 7 8 4 6 8 7 10 13 13 13 12 15 22 26 28 30 31 30
9 9 8 8 8 6 6 5 5 5 5 4 7 9 7 2 2 3 2 1 0 1 2 3 8 6 7 7 5 7 7 5 7 7 4 3 4 5 4 4 1 1 4 4 4 7 8 5 4 5 3 3 4 1 3 7 4 2 1 3 3 2 2 1 2 2 2 4 5 6 0 4 2 6 12 12 13 14 14 16 18 19 24 27 28 28 27 28
8 8 7 7 7 5 4 4 5 3 3 6 11 7 2 2 1 4 4 3 0 0 7 3 7 7 6 6 5 7 7 4 4 2 2 4 3 4 6 8 6 4 3 3 4 4 2 4 2 6 7 4 3 3 3 3 3 3 2 2 4 1 2 2 1 2 1 4 7 7 2 4 2 7 11 12 14 18 21 22 23 23 25 27 28 27 25 25
7 8 9 9 7 4 4 4 6 3 3 9 11 4 1 2 2 5 5 5 2 2 5 2 6 6 6 6 5 7 6 3 8 5 2 4 3 3 5 8 10 7 3 3 3 3 3 3 4 4 7 11 9 7 5 1 1 5 3 1 4 2 3 3 2 2 2 4 7 5 1 3 2 4 9 13 15 19 22 22 22 21 22 23 24 24 25 25
8 9 11 11 5 4 5 5 5 3 4 10 9 2 2 1 2 5 3 4 5 2 4 3 1 3 4 6 6 9 7 4 9 8 4 5 4 4 6 6 10 9 1 1 3 2 5 4 5 6 9 14 11 8 6 4 2 4 4 2 3 3 3 2 3 5 5 3 3 0 2 3 3 2 3 11 15 15 19 20 19 18 19 20 20 21 24 25
10 11 13 13 6 1 5 6 4 3 6 10 6 1 2 1 2 6 3 3 7 7 9 6 3 3 4 5 5 9 11 5 6 6 4 6 4 3 5 2 3 6 3 2 3 3 2 2 2 3 10 11 11 10 8 5 3 2 4 4 3 4 4 1 3 5 5 3 1 3 4 4 6 4 5 5 9 7 11 15 13 14 17 18 18 19 21 22
11 12 14 15 7 4 1 2 1 3 7 8 3 3 4 1 1 5 4 6 9 6 7 5 1 2 0 1 4 6 7 3 4 5 2 5 2 5 2 6 9 4 6 5 1 3 3 3 9 6 10 7 5 8 6 4 4 2 3 3 3 3 3 2 1 2 2 3 2 7 11 8 5 3 1 4 8 6 5 9 11 13 15 14 13 15 17 19
12 13 13 11 2 7 4 1 2 7 10 6 2 3 6 3 3 5 5 8 8 3 4 5 2 2 5 5 6 1 4 3 3 3 1 2 1 8 6 6 11 10 10 8 1 4 5 2 8 8 7 6 5 2 4 6 4 1 1 2 1 3 2 1 3 1 2 3 1 5 10 7 3 4 7 7 8 6 6 7 8 13 15 13 12 12 11 13
12 12 11 4 5 8 4 2 4 8 6 4 2 1 5 6 5 7 7 8 6 6 4 4 4 2 2 2 6 3 3 3 2 2 2 1 1 8 10 7 8 10 12 10 2 3 4 1 4 7 3 7 3 2 2 4 7 4 1 3 2 3 2 1 3 2 3 2 2 3 2 1 2 1 6 10 10 10 10 7 7 11 15 16 15 13 10 9
11 11 10 4 7 6 3 4 6 6 2 1 2 1 6 7 5 7 6 6 5 3 1 3 6 4 3 3 5 4 1 3 5 3 2 3 4 9 13 10 7 9 12 10 5 3 3 2 2 5 1 5 1 2 2 3 3 2 1 2 3 1 1 1 1 2 3 2 4 4 1 2 2 4 1 7 10 10 10 9 10 15 18 18 16 15 14 11
10 8 6 1 2 1 4 7 6 4 1 2 2 1 5 7 5 5 3 6 6 3 5 5 6 5 5 5 5 5 2 5 6 4 4 6 6 5 9 11 8 8 8 6 4 3 2 2 2 3 1 2 2 4 3 6 4 1 3 1 4 3 1 2 3 4 4 2 5 7 3 1 2 1 2 1 5 8 10 12 15 19 21 22 20 18 18 16
8 6 4 3 2 3 6 6 4 3 2 2 5 4 4 5 2 4 3 9 10 5 7 6 5 6 5 2 2 4 3 5 6 5 3 4 4 3 7 13 14 10 6 2 2 5 3 1 3 3 1 4 6 8 7 10 8 3 0 2 4 3 2 1 2 4 3 2 5 6 5 3 2 3 1 2 6 11 15 17 19 20 22 22 21 20 19 18
9 12 9 2 2 6 7 4 3 2 2 2 6 3 3 4 4 4 3 7 4 4 5 4 5 6 5 2 2 4 4 5 4 3 2 1 3 4 7 13 15 11 7 3 3 7 6 2 3 4 3 6 6 8 9 8 5 3 3 2 5 5 2 2 2 2 2 4 5 4 3 2 2 1 4 7 10 12 17 22 22 21 21 22 22 20 18 18
14 17 11 1 4 5 5 2 1 1 1 1 2 1 2 3 7 7 5 5 3 4 5 2 6 7 4 5 3 3 6 5 1 2 2 1 1 2 5 10 11 7 5 2 2 5 4 2 3 3 3 6 4 2 2 2 2 3 3 4 7 7 2 4 1 2 4 3 5 6 3 1 1 2 5 8 9 8 14 23 24 21 20 20 22 23 20 18
13 12 9 6 6 8 5 3 2 0 3 2 2 2 3 4 5 4 5 5 3 4 1 3 6 7 3 1 2 2 6 6 2 1 4 2 2 2 3 8 8 6 4 3 5 6 2 0 2 2 1 2 2 1 2 3 3 2 4 8 10 6 4 4 1 3 4 1 3 7 7 4 3 4 4 6 6 4 10 23 25 21 21 21 22 23 23 22
7 6 6 4 3 3 1 4 4 3 3 3 3 4 3 3 6 2 4 3 3 4 2 3 9 9 3 2 1 2 5 7 2 1 2 3 3 2 3 6 8 5 4 6 9 7 2 1 1 3 2 1 3 4 3 3 3 3 4 11 13 5 6 5 3 4 4 2 3 4 10 13 10 10 8 5 4 5 10 22 25 21 21 22 22 23 23 24
5 4 3 3 7 7 7 9 9 4 3 4 1 3 5 4 5 4 4 3 3 4 4 6 7 7 5 5 4 5 7 5 0 4 4 4 4 1 5 2 6 4 5 6 10 6 2 2 2 2 0 2 3 5 6 6 5 5 7 12 12 2 7 6 4 5 6 5 4 2 9 13 11 12 13 9 6 6 10 21 25 23 23 24 23 23 23 23
5 5 6 4 3 4 6 7 8 6 7 6 2 2 5 5 4 5 4 4 4 3 3 5 5 8 7 6 3 2 6 5 3 6 6 5 2 2 2 2 4 6 6 7 10 5 2 2 5 2 3 6 5 6 7 5 5 7 10 13 11 4 6 6 3 2 4 6 7 7 9 12 10 10 11 12 12 11 13 21 26 26 25 25 25 24 23 22
12 10 11 11 7 4 3 4 3 6 6 4 3 4 6 6 7 8 6 6 4 6 4 2 4 9 8 5 4 3 4 3 1 4 6 7 7 2 1 3 6 9 9 6 5 3 3 2 7 6 7 8 5 4 6 7 7 7 10 11 10 10 10 8 6 5 7 8 9 12 13 10 6 4 6 14 21 20 19 24 27 27 25 25 25 23 21 21
14 10 11 16 12 5 4 6 3 4 3 0 2 4 6 8 8 7 7 8 5 6 5 4 8 9 8 6 5 5 4 3 4 0 3 5 7 4 2 3 5 8 8 3 2 4 3 1 4 5 5 6 6 6 6 6 7 7 9 10 9 9 9 8 7 5 8 9 7 12 14 8 3 3 5 13 21 20 19 22 23 26 27 26 25 23 21 20
11 7 8 12 8 3 3 5 1 3 3 2 3 5 6 7 5 4 5 7 7 7 8 7 9 7 6 7 6 6 5 4 5 3 3 5 6 4 3 5 5 6 5 3 3 4 3 2 2 4 3 3 6 7 5 4 5 5 7 9 5 3 4 5 5 5 7 10 10 10 8 4 4 7 10 15 20 21 21 22 21 23 27 27 25 23 20 19
12 5 8 10 5 6 5 2 2 3 2 2 3 4 6 6 6 6 3 2 4 6 8 8 8 4 4 7 7 7 6 5 2 2 6 7 7 5 4 4 5 5 5 4 3 2 2 3 3 3 2 2 5 7 6 4 3 3 4 6 6 3 2 3 4 4 8 10 10 7 5 5 8 11 10 10 14 18 19 20 22 24 26 26 25 24 21 18
Wind_Direction
355 354 354 355 355 354 351 350 351 351 352 352 353 349 344 342 337 335 330 329 330 330 330 326 323 321 316 303 292 292 291 287 280 271 269 264 209 202 203 199 197 203 205 208 193 173 185 207 211 228 249 246 228 222 208 169 145 124 74 2 289 286 213 188 171 157 129 144 149 146 158 135 132 158 142 115 101 125 116 116 128 128 130 135 137 138 142 143
356 355 353 353 352 351 349 347 346 346 347 346 346 346 346 345 342 341 335 330 325 325 327 323 323 320 316 305 296 294 293 294 283 275 271 232 211 200 197 203 193 198 202 204 194 177 191 210 216 225 233 238 220 218 200 149 138 117 68 23 268 273 178 166 159 153 144 144 129 139 169 143 140 156 144 126 114 132 121 130 135 124 127 135 138 140 144 145
357 355 353 353 351 350 348 346 344 342 342 341 342 342 342 344 343 342 338 330 321 320 321 321 322 319 315 303 298 298 300 302 293 294 277 208 220 202 188 196 195 200 200 200 194 177 191 209 212 211 218 235 214 197 165 139 152 141 124 11 272 260 235 150 159 164 151 139 130 138 152 126 138 148 131 131 121 127 123 139 138 127 133 140 141 142 143 145
354 353 352 352 352 352 348 346 344 340 338 338 339 338 339 341 340 341 339 332 323 317 318 320 319 319 314 301 298 302 308 316 306 352 55 213 222 211 188 183 188 197 197 187 184 180 204 224 225 212 214 237 201 168 164 160 166 149 152 184 239 260 249 165 166 164 150 141 138 135 129 119 137 143 131 129 107 106 144 143 141 137 141 143 143 145 145 145
348 347 347 347 348 349 347 345 343 339 336 334 334 335 337 338 337 338 337 336 328 319 319 317 316 318 310 298 298 302 316 353 66 113 28 5 18 236 188 177 183 189 188 179 179 188 221 236 234 225 219 245 190 135 204 194 172 153 182 185 198 232 259 187 173 154 144 141 136 133 130 135 141 141 145 137 121 172 157 147 145 142 145 146 147 147 147 146
341 341 340 341 341 342 342 343 341 339 337 333 330 331 333 335 336 335 332 338 331 320 320 317 316 313 305 300 296 302 308 114 116 271 299 350 2 333 195 180 179 180 177 176 179 189 230 233 233 235 219 233 209 156 223 209 186 176 205 203 199 199 211 191 166 145 144 143 137 138 135 140 139 138 156 151 135 152 146 146 146 144 146 148 149 149 148 149
335 335 334 335 334 335 335 336 338 338 338 334 327 327 329 332 335 332 327 332 329 321 320 316 313 308 306 298 291 303 285 263 276 299 268 295 344 352 228 187 177 176 172 175 178 186 228 227 222 233 228 226 229 197 202 207 189 163 236 255 215 195 197 180 157 145 147 145 138 137 134 138 138 138 160 161 138 146 147 148 147 145 147 149 151 151 149 150
333 331 330 330 328 329 329 330 331 333 336 334 329 326 325 328 328 327 324 326 326 319 318 315 310 305 304 298 308 309 281 277 309 302 273 281 315 333 267 194 179 174 173 175 172 180 217 226 220 226 240 229 250 221 182 192 183 170 226 246 255 215 190 169 155 149 143 139 135 133 131 131 127 133 154 165 145 146 143 143 146 146 148 151 152 151 150 152
331 329 328 327 325 326 325 326 326 326 330 331 330 327 323 325 323 321 319 321 322 316 318 315 306 302 299 303 332 301 282 302 309 264 284 286 296 304 269 201 181 174 176 174 169 188 218 226 221 226 255 249 270 252 172 173 182 193 215 241 261 182 169 165 155 149 137 137 135 126 126 130 123 126 137 178 156 147 147 147 148 149 151 154 154 153 154 155
330 329 327 325 324 324 324 325 323 321 323 326 329 328 324 323 319 317 317 319 317 312 318 312 303 295 287 285 354 282 282 285 241 268 289 284 279 278 253 201 184 177 177 175 176 203 228 228 222 231 254 255 275 262 185 185 179 175 183 243 243 133 150 171 151 142 137 142 136 123 126 133 131 134 135 180 168 155 155 155 154 152 153 156 155 155 157 157
329 328 326 325 324 323 324 324 322 318 319 322 325 328 326 322 319 317 317 317 313 311 316 308 300 287 274 244 233 241 218 236 269 297 303 278 255 260 236 196 185 180 176 178 186 207 229 236 246 251 254 257 278 272 238 240 167 164 173 225 225 134 155 174 147 142 138 134 130 120 105 110 130 101 34 159 162 160 157 153 155 156 155 157 155 157 161 159
329 327 326 327 327 326 325 325 321 317 316 317 321 327 326 320 320 320 319 314 311 316 316 305 294 281 274 255 239 218 123 77 293 302 308 294 234 227 206 190 186 181 173 177 195 211 230 240 258 264 277 304 295 275 295 318 237 173 175 207 140 116 157 170 147 142 127 120 133 121 92 86 125 49 52 129 142 151 158 155 157 159 159 158 156 160 163 161
330 328 328 331 332 331 329 326 322 315 313 312 315 325 324 318 320 322 319 307 311 320 316 302 290 282 275 259 239 214 84 70 238 279 308 317 184 167 170 178 187 180 170 185 204 215 234 243 260 266 281 299 313 321 320 316 292 198 178 170 96 109 144 208 143 125 98 123 144 125 90 172 113 78 130 153 144 144 162 172 165 161 161 157 157 163 164 162
336 336 336 339 341 339 335 330 324 317 311 307 310 321 320 315 316 320 318 308 318 324 320 303 291 296 271 253 220 190 194 179 209 240 266 229 163 161 160 174 198 182 179 208 221 224 229 239 258 266 282 294 311 321 316 311 302 239 181 166 126 121 111 323 342 101 76 148 158 103 95 162 103 117 143 144 148 140 177 195 171 161 163 157 158 167 163 163
346 348 346 346 347 346 342 335 328 320 311 303 305 317 315 305 303 309 320 302 311 322 324 318 307 307 274 273 276 192 195 204 213 213 220 195 176 178 171 183 201 194 195 217 232 240 231 226 237 248 280 290 293 302 295 292 295 267 200 173 120 114 149 258 269 144 122 182 201 9 108 142 99 138 135 150 159 157 221 204 171 162 165 156 161 171 164 168
349 353 352 349 348 346 344 339 332 323 312 301 303 313 304 288 283 289 317 289 292 311 309 341 344 322 284 284 272 212 205 228 229 207 209 195 183 184 176 183 196 203 210 219 233 246 241 228 231 247 273 277 271 259 273 289 278 245 204 171 122 111 158 187 234 208 157 149 198 276 120 124 139 142 149 172 167 168 218 205 171 165 168 157 161 171 167 175
348 352 350 346 344 342 342 338 332 324 310 299 301 306 289 276 276 281 286 264 266 277 271 279 344 306 267 243 248 223 218 234 219 196 201 197 192 188 178 185 195 201 211 222 220 228 246 223 193 237 253 258 265 240 249 256 252 223 201 195 141 137 171 167 167 195 164 146 154 184 143 132 151 152 160 177 170 169 196 209 175 163 167 158 162 171 168 177
347 348 346 343 340 338 338 335 331 323 307 298 298 295 281 271 270 268 259 259 262 268 272 240 206 299 259 227 230 216 208 208 190 189 195 194 197 194 182 186 194 193 203 222 209 204 227 185 154 186 232 222 253 239 213 223 235 200 180 205 161 151 169 170 162 170 168 157 148 168 171 133 138 154 160 166 167 166 185 208 187 153 162 157 164 172 167 177
344 345 343 340 338 336 335 333 330 323 307 298 296 289 284 282 274 266 256 249 240 246 275 208 189 213 300 251 226 205 201 189 177 184 186 186 191 187 179 184 195 190 191 204 189 187 190 156 158 207 227 204 219 226 232 239 248 248 217 223 196 169 169 166 158 165 165 150 149 164 154 140 145 156 156 153 159 154 169 198 186 157 166 158 169 174 166 176
344 345 345 344 343 338 334 333 334 327 309 296 292 285 294 308 295 250 232 239 249 263 268 234 217 239 287 291 234 183 179 175 181 186 186 190 182 174 180 191 199 196 196 188 176 187 190 180 180 203 221 219 218 218 240 257 262 281 294 286 261 213 164 153 150 168 164 139 167 164 142 153 153 150 158 153 159 160 164 189 184 162 170 171 185 176 165 176
344 346 349 351 350 344 338 340 344 339 320 300 293 285 308 336 339 358 305 263 274 277 266 263 248 249 274 288 231 160 153 168 191 187 187 194 176 164 177 191 196 190 215 220 202 191 190 205 209 205 216 225 230 218 227 252 261 278 289 285 288 275 141 151 157 172 167 136 170 161 144 166 158 148 165 156 163 175 168 183 189 173 174 184 198 179 168 175
344 348 350 352 354 352 346 351 359 0 339 306 292 292 333 356 341 331 328 291 286 280 259 260 266 257 266 278 206 153 156 178 194 185 189 194 183 167 168 182 206 183 208 227 221 186 186 224 224 215 215 218 238 237 227 241 250 267 274 275 295 106 132 156 161 161 159 134 156 155 148 168 156 151 167 164 170 180 177 185 190 186 186 193 199 183 171 174
344 349 349 350 355 354 346 348 1 17 12 339 326 330 355 3 339 325 324 296 287 282 254 239 249 255 257 259 156 167 194 194 193 187 190 197 196 188 171 178 221 200 195 218 220 194 180 212 222 230 230 211 226 242 243 248 245 249 253 267 268 153 143 150 160 161 161 153 150 148 142 154 148 149 170 176 169 168 183 190 188 193 196 196 197 184 174 176
343 349 348 348 353 351 342 340 353 13 5 332 332 356 1 352 331 329 325 293 281 283 261 231 227 239 249 238 168 204 227 211 207 192 184 202 205 195 188 190 209 217 207 207 214 226 223 203 204 222 241 227 219 225 237 255 252 241 241 255 260 193 150 138 163 174 162 149 150 142 128 149 163 163 172 172 161 162 180 185 188 200 200 198 200 188 181 183
341 348 347 347 352 351 340 341 4 4 335 305 318 6 1 342 318 326 325 299 268 258 252 222 208 220 235 224 186 215 237 225 227 199 179 200 208 194 205 202 199 223 215 209 213 226 242 221 200 203 230 239 231 215 217 228 239 246 235 236 255 255 138 150 168 167 147 150 162 151 125 159 173 172 172 157 155 165 173 180 192 199 197 198 202 195 188 188
337 344 346 346 351 352 343 346 6 348 316 296 327 352 347 330 320 327 326 288 274 218 200 182 185 201 213 208 196 214 248 227 232 211 178 190 211 210 219 197 186 219 222 219 215 210 240 240 217 196 207 226 238 233 220 217 221 268 235 221 250 275 162 171 169 156 159 174 177 173 132 135 170 176 176 161 157 164 169 181 192 196 199 195 196 198 192 188
334 341 344 345 351 355 352 350 353 349 340 333 342 345 333 319 321 331 324 250 255 141 136 156 177 198 201 189 181 191 286 192 210 203 175 179 212 225 254 223 186 226 238 236 221 190 211 232 235 206 199 211 226 233 227 208 177 253 243 203 231 265 238 204 187 169 180 159 178 194 137 120 177 173 167 165 157 156 170 183 187 194 204 203 198 198 192 190
332 338 341 346 350 351 355 353 355 6 7 354 339 334 327 319 321 333 318 295 26 113 119 148 166 184 184 180 190 221 256 191 184 172 166 182 214 217 245 259 254 259 245 250 239 193 193 219 241 218 200 201 213 222 226 219 202 247 258 229 220 244 246 248 247 221 167 114 166 204 142 108 161 159 156 163 158 156 169 180 186 191 200 206 204 197 194 193
332 338 341 349 349 338 335 337 353 17 8 340 325 318 329 322 320 317 273 316 19 184 158 152 156 165 178 184 207 236 248 217 156 143 161 186 219 218 244 270 282 284 269 277 257 218 184 202 232 239 205 194 209 215 211 212 204 240 269 289 288 260 228 224 215 139 310 75 172 203 186 127 133 162 158 164 169 169 171 179 188 189 193 201 204 199 198 196
334 339 342 351 351 336 324 327 1 15 349 327 324 342 336 310 298 293 262 12 89 179 162 136 140 168 187 190 206 230 245 222 147 158 169 178 200 220 264 282 284 298 302 291 264 258 226 199 218 245 226 207 209 202 202 214 196 189 250 282 290 284 271 232 163 96 285 276 208 206 188 137 132 182 172 173 181 172 167 175 184 187 189 195 200 198 196 195
335 338 338 346 348 340 329 333 7 3 328 311 334 339 311 288 247 295 282 144 76 157 176 165 145 171 193 200 206 217 240 216 163 175 183 165 185 205 247 273 280 306 295 282 255 263 257 210 203 221 217 259 33 76 237 250 225 164 218 257 263 291 320 281 138 89 178 249 256 229 170 126 133 188 178 173 170 162 165 174 180 188 189 190 195 196 194 195
333 331 329 334 337 339 332 344 28 3 329 333 337 324 306 282 183 299 331 165 218 46 282 202 151 176 203 209 216 198 227 234 166 172 163 146 195 189 195 232 204 188 276 278 230 239 251 227 158 127 118 23 9 2 253 257 232 138 243 238 235 302 28 60 144 129 225 242 262 276 80 92 114 163 164 160 152 158 171 175 177 187 189 188 191 190 190 193
321 316 327 328 327 350 355 19 54 24 347 329 313 307 332 34 349 307 315 295 263 123 300 297 144 175 201 211 223 188 214 234 134 132 121 156 206 187 204 231 218 205 237 278 255 213 255 302 197 136 121 155 237 259 219 227 182 177 243 182 175 170 85 116 120 123 259 274 269 280 9 77 104 129 143 150 152 161 171 175 179 187 192 189 186 184 185 189
298 305 328 322 320 18 25 33 53 34 338 310 294 276 46 15 311 293 285 298 321 188 273 311 144 178 187 212 230 176 203 210 146 159 184 179 210 195 209 232 231 234 232 263 285 210 218 282 227 189 137 158 200 238 232 277 153 196 243 191 171 176 137 153 149 133 216 257 263 267 90 121 168 128 126 134 140 147 157 169 175 181 191 189 181 180 182 185
286 301 315 311 315 39 25 21 42 26 312 295 284 257 346 345 278 301 311 325 327 321 322 337 190 227 177 210 238 184 190 204 167 173 191 197 209 194 194 216 230 240 265 321 303 266 223 198 180 191 156 157 188 225 240 277 281 203 223 244 205 180 146 151 186 185 188 229 274 340 85 112 123 39 74 125 132 135 146 158 165 171 182 182 180 180 180 183
289 297 302 304 299 54 17 11 27 6 298 284 282 250 289 189 246 308 354 337 318 335 327 305 261 276 189 188 250 205 191 193 182 182 188 202 215 201 180 150 245 228 104 55 303 328 261 247 319 205 173 176 187 190 202 212 208 211 207 224 240 191 166 156 225 212 177 169 187 103 100 94 97 49 353 91 107 109 137 142 147 162 167 168 174 177 177 182
292 296 296 298 276 204 289 341 270 291 273 268 297 319 291 220 279 317 352 317 305 322 321 314 46 333 330 136 280 214 173 136 181 193 193 194 229 353 33 62 32 35 79 68 320 356 8 303 317 280 197 186 162 176 221 220 172 164 195 235 266 225 208 131 131 272 185 160 170 137 142 149 136 135 222 103 86 65 92 108 113 132 136 139 156 168 174 180
305 308 304 306 243 172 202 214 225 262 264 267 308 306 293 317 6 358 355 311 305 355 354 348 34 20 26 0 307 330 67 31 176 176 1 179 170 358 5 55 38 29 36 37 32 340 1 342 314 290 190 129 77 112 285 288 272 250 200 298 281 185 233 142 121 279 228 166 132 139 147 147 123 144 154 130 108 104 94 82 95 112 115 120 136 145 152 165
319 316 304 293 145 162 202 248 252 256 266 306 330 303 304 322 7 17 357 320 334 39 21 353 21 14 39 335 306 356 39 332 344 47 14 337 358 12 15 20 15 12 12 7 342 326 360 71 310 306 117 96 71 145 179 273 286 285 276 324 328 147 179 191 165 210 220 173 125 117 113 348 338 277 147 135 132 131 121 108 102 107 113 122 130 129 120 129
334 314 285 227 150 148 186 229 249 250 234 307 295 316 306 306 349 22 9 334 336 48 37 345 15 353 317 346 324 319 328 314 337 9 48 23 40 39 22 7 349 354 356 344 324 328 348 38 306 290 49 76 83 204 187 226 249 247 108 1 308 264 308 290 236 234 217 172 130 114 64 272 261 318 341 128 125 121 120 116 105 99 100 102 106 111 104 93
324 299 275 257 106 128 191 202 231 247 229 316 290 286 284 286 324 343 2 7 348 41 76 26 8 354 341 357 319 297 13 21 356 19 50 28 44 50 9 352 338 338 341 329 336 5 355 3 318 278 43 16 229 182 241 274 271 245 111 161 259 259 238 279 291 278 256 196 136 129 129 190 144 111 298 129 98 99 107 104 99 95 91 89 87 88 86 78
309 282 299 347 305 239 199 206 240 226 152 284 255 243 269 269 319 328 10 34 2 6 80 65 11 357 346 13 340 321 50 52 13 27 53 40 51 44 358 352 345 341 345 338 5 360 341 318 310 319 27 291 239 167 195 261 272 283 195 201 257 246 181 228 276 280 300 53 96 108 108 95 111 141 150 93 96 110 114 104 95 91 89 89 85 80 78 78
312 294 298 317 184 207 209 232 263 219 143 233 244 241 310 317 7 9 38 63 15 350 52 72 73 39 334 301 19 4 65 69 35 52 101 132 64 17 359 3 359 357 2 10 11 348 337 341 326 324 332 297 260 162 176 232 258 306 308 287 276 258 175 117 195 207 46 75 94 85 84 126 157 120 90 99 103 108 111 103 94 90 89 89 86 79 74 77
316 300 287 192 139 212 235 288 261 226 356 275 258 136 130 21 9 351 1 42 36 32 25 352 104 103 277 293 350 10 68 70 261 156 124 167 64 11 7 19 17 18 23 7 310 330 334 10 356 338 332 328 335 84 122 291 359 357 298 274 268 268 35 60 40 69 59 78 112 104 99 175 151 73 90 110 104 93 104 104 99 97 95 91 88 83 76 76
324 309 272 216 187 204 221 322 306 36 1 327 356 34 142 107 53 333 328 353 0 50 35 299 74 98 209 232 8 331 91 101 250 133 98 102 66 33 52 54 43 32 27 351 317 322 323 86 30 47 21 357 3 321 335 355 341 298 292 286 272 279 36 66 55 57 61 50 94 113 129 136 123 97 90 101 104 115 115 106 101 100 100 96 92 87 79 76
325 317 285 258 273 237 191 346 348 71 24 330 15 10 341 86 93 47 338 353 350 6 347 348 52 61 16 47 85 341 87 118 207 296 86 115 105 12 10 69 79 50 345 340 350 352 3 336 74 114 99 123 188 249 290 1 329 296 307 292 278 296 45 66 83 85 115 106 54 122 139 137 142 133 120 122 143 151 120 107 104 101 100 98 94 89 81 75
285 292 344 14 335 346 35 17 7 52 41 355 7 333 337 19 75 65 31 19 326 319 347 7 44 70 20 13 53 18 27 66 352 323 1 60 99 55 332 16 96 49 324 6 26 23 60 6 324 158 261 286 273 315 345 2 337 336 336 304 284 304 63 52 63 107 130 107 74 132 132 128 141 140 136 148 151 128 112 112 114 111 107 103 96 90 84 78
318 330 17 35 314 350 38 9 357 34 36 18 346 315 360 21 49 57 31 360 341 359 27 6 38 93 82 43 70 33 9 34 18 347 359 12 32 168 290 332 69 27 3 50 48 35 95 358 317 330 346 316 301 320 337 344 336 348 347 326 314 352 63 59 41 69 97 116 143 153 123 115 127 136 140 142 128 120 121 117 115 115 111 106 100 93 87 82
355 351 2 2 345 8 23 309 329 61 47 14 348 2 27 40 52 54 21 355 20 34 16 343 59 94 105 83 76 65 29 56 34 345 352 350 344 342 19 20 36 19 15 57 61 41 85 349 329 5 6 337 327 322 331 342 345 346 343 342 354 11 26 28 3 19 86 119 142 132 114 102 105 123 142 139 134 133 127 116 112 111 105 99 97 94 89 87
0 354 346 340 338 8 358 298 302 77 79 48 357 12 41 51 47 48 24 9 26 24 6 45 67 77 106 106 94 97 95 150 169 78 322 328 344 354 14 10 14 7 5 37 49 26 55 325 331 26 18 336 332 335 335 334 330 334 333 340 11 18 5 7 8 38 102 113 104 107 109 101 83 64 78 112 121 116 103 100 105 109 104 96 93 90 87 85
351 348 349 340 328 342 333 300 316 66 47 42 29 14 43 57 31 21 28 15 21 19 9 40 63 61 83 81 70 89 104 152 168 175 296 330 1 30 45 13 1 2 360 19 25 6 10 326 329 60 54 327 319 318 307 299 307 323 319 317 344 15 341 348 2 22 89 112 111 108 114 130 128 98 73 82 92 87 78 76 84 99 105 102 98 94 91 86
352 354 18 7 328 285 287 266 87 72 70 60 60 44 46 57 34 23 25 5 40 40 6 18 42 38 69 70 40 26 24 7 15 353 331 340 350 9 27 353 352 14 9 10 11 341 4 1 351 50 64 280 282 289 295 309 310 304 312 330 348 353 299 310 329 31 82 113 134 134 137 151 135 117 107 101 96 92 89 83 79 86 97 104 106 103 99 95